TimeCDT,TemperatureF,Dew PointF,Humidity,Sea Level PressureIn,VisibilityMPH,Wind Direction,Wind SpeedMPH,Gust SpeedMPH,PrecipitationIn,Events,Conditions,WindDirDegrees,DateUTC
12:15 AM,40.1,30.6,69,29.91,10.0,NE,17.3,-,N/A,,Clear,50,2013-03-17 05:15:00
12:35 AM,39.7,30.2,69,29.89,10.0,NE,20.7,26.5,N/A,,Clear,40,2013-03-17 05:35:00
12:55 AM,39.2,30.0,70,29.88,10.0,NE,19.6,-,N/A,,Clear,40,2013-03-17 05:55:00
1:15 AM,38.7,30.0,71,29.89,10.0,ENE,16.1,-,N/A,,Clear,60,2013-03-17 06:15:00
1:35 AM,38.3,29.5,71,29.89,10.0,NE,16.1,21.9,N/A,,Clear,50,2013-03-17 06:35:00
1:55 AM,37.9,29.7,72,29.89,10.0,NE,15.0,-,N/A,,Clear,50,2013-03-17 06:55:00
2:15 AM,37.6,29.3,72,29.89,10.0,NE,11.5,-,N/A,,Clear,40,2013-03-17 07:15:00
2:35 AM,37.0,28.9,73,29.89,10.0,NE,12.7,-,N/A,,Clear,40,2013-03-17 07:35:00
2:55 AM,36.5,28.9,74,29.90,10.0,NE,6.9,-,N/A,,Clear,50,2013-03-17 07:55:00
3:15 AM,36.1,28.8,75,29.90,10.0,NNE,9.2,-,N/A,,Clear,30,2013-03-17 08:15:00
3:35 AM,36.0,28.8,75,29.89,10.0,NNE,10.4,-,N/A,,Clear,30,2013-03-17 08:35:00
3:55 AM,36.0,28.4,74,29.89,10.0,North,12.7,-,N/A,,Clear,10,2013-03-17 08:55:00
4:15 AM,35.6,27.9,73,29.88,10.0,NNE,12.7,-,N/A,,Scattered Clouds,30,2013-03-17 09:15:00
4:35 AM,35.1,27.9,75,29.88,10.0,NNE,8.1,-,N/A,,Clear,20,2013-03-17 09:35:00
4:55 AM,34.9,27.7,75,29.88,10.0,NNE,8.1,-,N/A,,Scattered Clouds,20,2013-03-17 09:55:00
5:35 AM,33.3,27.0,78,29.84,10.0,East,9.2,-,N/A,,Scattered Clouds,80,2013-03-17 10:35:00
5:55 AM,32.9,26.6,78,29.87,10.0,North,5.8,-,N/A,,Clear,10,2013-03-17 10:55:00
6:15 AM,32.4,26.6,79,29.86,10.0,NNE,8.1,-,N/A,,Clear,30,2013-03-17 11:15:00
6:35 AM,32.0,26.4,80,29.89,10.0,North,6.9,-,N/A,,Clear,360,2013-03-17 11:35:00
6:55 AM,31.5,26.4,82,29.88,10.0,North,4.6,-,N/A,,Clear,10,2013-03-17 11:55:00
7:15 AM,32.0,26.6,80,29.88,10.0,North,6.9,-,N/A,,Scattered Clouds,360,2013-03-17 12:15:00
7:35 AM,32.0,26.6,80,29.85,10.0,NNE,6.9,-,N/A,,Mostly Cloudy,20,2013-03-17 12:35:00
7:55 AM,32.0,26.6,80,29.89,10.0,NNW,9.2,-,N/A,,Scattered Clouds,340,2013-03-17 12:55:00
8:15 AM,31.5,26.2,81,29.86,10.0,North,9.2,-,N/A,,Scattered Clouds,10,2013-03-17 13:15:00
8:35 AM,30.7,25.7,82,29.87,10.0,North,5.8,-,N/A,,Clear,350,2013-03-17 13:35:00
8:55 AM,32.0,26.4,80,29.89,10.0,North,6.9,-,N/A,,Clear,360,2013-03-17 13:55:00
9:15 AM,32.9,26.2,76,29.89,10.0,North,6.9,-,N/A,,Clear,350,2013-03-17 14:15:00
9:35 AM,33.8,26.4,74,29.87,10.0,North,10.4,-,N/A,,Clear,350,2013-03-17 14:35:00
9:55 AM,35.1,26.6,71,29.89,10.0,NNW,10.4,-,N/A,,Clear,340,2013-03-17 14:55:00
10:15 AM,36.1,27.0,69,29.89,10.0,NNW,9.2,-,N/A,,Clear,340,2013-03-17 15:15:00
10:35 AM,37.4,27.3,67,29.87,10.0,North,5.8,-,N/A,,Clear,10,2013-03-17 15:35:00
10:55 AM,39.0,27.5,63,29.87,10.0,North,8.1,-,N/A,,Clear,350,2013-03-17 15:55:00
11:15 AM,39.9,27.3,61,29.86,10.0,NNW,5.8,-,N/A,,Clear,330,2013-03-17 16:15:00
11:35 AM,41.4,27.5,58,29.85,10.0,NNE,4.6,-,N/A,,Clear,20,2013-03-17 16:35:00
11:55 AM,42.8,27.1,54,29.85,10.0,NE,3.5,-,N/A,,Clear,40,2013-03-17 16:55:00
12:15 PM,43.9,27.0,51,29.84,10.0,Calm,Calm,-,N/A,,Clear,0,2013-03-17 17:15:00
12:35 PM,46.2,27.0,47,29.83,10.0,Calm,Calm,-,N/A,,Clear,0,2013-03-17 17:35:00
12:55 PM,47.8,27.3,45,29.80,10.0,South,3.5,-,N/A,,Clear,170,2013-03-17 17:55:00
1:15 PM,49.1,28.0,44,29.80,10.0,South,4.6,-,N/A,,Clear,180,2013-03-17 18:15:00
1:35 PM,50.5,28.0,42,29.78,10.0,South,4.6,-,N/A,,Clear,180,2013-03-17 18:35:00
1:55 PM,52.0,27.7,39,29.76,10.0,SSW,3.5,-,N/A,,Clear,210,2013-03-17 18:55:00
2:15 PM,54.0,28.2,37,29.75,10.0,South,5.8,-,N/A,,Clear,180,2013-03-17 19:15:00
2:35 PM,55.2,28.8,36,29.74,10.0,SW,8.1,-,N/A,,Clear,230,2013-03-17 19:35:00
2:55 PM,55.6,29.3,37,29.72,10.0,WSW,6.9,-,N/A,,Clear,250,2013-03-17 19:55:00
3:15 PM,57.4,29.7,35,29.70,10.0,SSW,10.4,18.4,N/A,,Clear,200,2013-03-17 20:15:00
3:35 PM,60.4,30.6,32,29.68,10.0,SSW,13.8,17.3,N/A,,Clear,200,2013-03-17 20:35:00
3:55 PM,62.6,31.1,31,29.65,10.0,South,15.0,18.4,N/A,,Clear,190,2013-03-17 20:55:00
4:15 PM,61.7,31.1,32,29.65,10.0,South,12.7,20.7,N/A,,Clear,190,2013-03-17 21:15:00
4:35 PM,62.6,31.6,31,29.63,10.0,South,18.4,21.9,N/A,,Clear,170,2013-03-17 21:35:00
4:55 PM,62.6,32.0,32,29.62,10.0,South,15.0,23.0,N/A,,Clear,190,2013-03-17 21:55:00
5:15 PM,62.6,31.8,32,29.61,10.0,South,17.3,25.3,N/A,,Clear,180,2013-03-17 22:15:00
5:35 PM,61.2,32.0,33,29.59,10.0,South,21.9,26.5,N/A,,Clear,170,2013-03-17 22:35:00
5:55 PM,60.6,32.0,34,29.60,10.0,South,19.6,26.5,N/A,,Clear,180,2013-03-17 22:55:00
6:15 PM,59.5,33.3,37,29.63,10.0,SSW,9.2,28.8,N/A,Rain,Rain,200,2013-03-17 23:15:00
6:35 PM,57.2,44.1,62,29.62,7.0,South,19.6,29.9,N/A,Rain,Light Rain,190,2013-03-17 23:35:00
6:55 PM,55.4,40.5,57,29.62,10.0,SSE,13.8,-,N/A,,Scattered Clouds,160,2013-03-17 23:55:00
7:15 PM,55.6,39.7,55,29.61,10.0,SSE,11.5,-,N/A,,Clear,150,2013-03-18 00:15:00
7:35 PM,54.9,39.4,56,29.62,10.0,South,13.8,-,N/A,,Clear,170,2013-03-18 00:35:00
7:55 PM,53.2,38.3,57,29.61,10.0,South,16.1,20.7,N/A,,Scattered Clouds,170,2013-03-18 00:55:00
8:15 PM,52.2,37.0,56,29.61,10.0,South,19.6,-,N/A,,Scattered Clouds,170,2013-03-18 01:15:00
8:35 PM,51.1,35.8,56,29.61,10.0,South,19.6,-,N/A,,Clear,170,2013-03-18 01:35:00
8:55 PM,50.0,35.1,57,29.61,10.0,South,18.4,23.0,N/A,,Clear,170,2013-03-18 01:55:00
9:15 PM,49.5,34.7,57,29.62,10.0,South,16.1,-,N/A,,Clear,170,2013-03-18 02:15:00
9:35 PM,48.7,34.3,58,29.62,10.0,South,15.0,18.4,N/A,,Clear,170,2013-03-18 02:35:00
9:55 PM,48.6,34.2,58,29.62,10.0,South,17.3,-,N/A,,Clear,170,2013-03-18 02:55:00
10:15 PM,47.7,34.5,60,29.62,10.0,South,13.8,18.4,N/A,,Clear,170,2013-03-18 03:15:00
10:35 PM,47.8,34.7,60,29.62,10.0,South,13.8,-,N/A,,Clear,180,2013-03-18 03:35:00
10:55 PM,47.3,34.7,62,29.62,10.0,South,13.8,-,N/A,,Clear,180,2013-03-18 03:55:00
11:15 PM,46.9,34.9,63,29.62,10.0,South,15.0,-,N/A,,Clear,170,2013-03-18 04:15:00
11:35 PM,46.0,35.1,66,29.62,10.0,South,11.5,-,N/A,,Clear,180,2013-03-18 04:35:00
11:55 PM,45.5,35.1,67,29.61,10.0,South,11.5,-,N/A,,Clear,190,2013-03-18 04:55:00